Location: DARK SKY Beskydy - Park tmavé oblohy, www.darkskybeskydy.cz
(49.4926°N, 18.5016°E)
Time: 14:55:56
(UTC+01:00)

Vanguard 1 - Pass Details

Date: 22 November 2025
Orbit: 650 x 3821 km, 34.2° (Epoch: 07 December)

Event Time Altitude Azimuth Distance (km) Brightness Sun altitude
Rises 18:01:31 0° 263° (W) 6,856 16.0 -20.0°
Reaches altitude 10° 18:05:48 10° 258° (WSW) 6,157 15.3 -20.6°
Maximum altitude 18:25:33 50° 192° (SSW) 4,460 13.4 -23.8°
Enters shadow 18:43:35 16° 130° (SE) 5,998 13.6 -26.8°
